owner,sensor,date,latitude,longitude,vertical_datum,wind_speed,wind_to_direction,wind_speed_of_gust,qcFlag 
TCOON,ioos:station:TCOON:518:1,2011-06-01T00:00:00Z,29.5150,-94.5133,0.0,5.6,144.0,7.4,'11111222,11111222,11111222' 
TCOON,ioos:station:TCOON:518:1,2011-06-01T01:00:00Z,29.5150,-94.5133,0.0,4.9,153.0,5.8,'11111222,11111222,11111222' 
TCOON,ioos:station:TCOON:518:1,2011-06-01T03:00:00Z,29.5150,-94.5133,0.0,4.7,149.0,5.9,'11111222,11111222,11111222' 
TCOON,ioos:station:TCOON:518:1,2011-06-01T04:00:00Z,29.5150,-94.5133,0.0,4.1,156.0,5.2,'11111222,11111222,11111222' 
TCOON,ioos:station:TCOON:518:1,2011-06-01T05:00:00Z,29.5150,-94.5133,0.0,3.0,168.0,4.3,'11111222,11111222,11111222' 
TCOON,ioos:station:TCOON:518:1,2011-06-01T06:00:00Z,29.5150,-94.5133,0.0,2.8,172.0,4.3,'11111222,11111222,11111222' 
TCOON,ioos:station:TCOON:518:1,2011-06-01T07:00:00Z,29.5150,-94.5133,0.0,2.2,185.0,2.9,'11111222,11111222,11111222' 
TCOON,ioos:station:TCOON:518:1,2011-06-01T08:00:00Z,29.5150,-94.5133,0.0,1.3,199.0,2.3,'11111222,11111222,11111222' 
TCOON,ioos:station:TCOON:518:1,2011-06-01T09:00:00Z,29.5150,-94.5133,0.0,1.8,167.0,2.6,'11111222,11111222,11111222' 
TCOON,ioos:station:TCOON:518:1,2011-06-01T10:00:00Z,29.5150,-94.5133,0.0,0.8,256.0,0.9,'11111222,11111222,11111222' 
TCOON,ioos:station:TCOON:518:1,2011-06-01T11:00:00Z,29.5150,-94.5133,0.0,3.0,3.0,3.5,'11111222,11111222,11111222' 
TCOON,ioos:station:TCOON:518:1,2011-06-01T12:00:00Z,29.5150,-94.5133,0.0,3.1,9.0,3.5,'11111222,11111222,11111222' 
TCOON,ioos:station:TCOON:518:1,2011-06-01T13:00:00Z,29.5150,-94.5133,0.0,3.7,31.0,4.1,'11111222,11111222,11111222' 
TCOON,ioos:station:TCOON:518:1,2011-06-01T14:00:00Z,29.5150,-94.5133,0.0,3.0,47.0,3.6,'11111222,11111222,11111222' 
TCOON,ioos:station:TCOON:518:1,2011-06-01T15:00:00Z,29.5150,-94.5133,0.0,2.6,46.0,3.2,'11111222,11111222,11111222' 
TCOON,ioos:station:TCOON:518:1,2011-06-01T16:00:00Z,29.5150,-94.5133,0.0,1.2,52.0,1.8,'11111222,11111222,11111222' 
TCOON,ioos:station:TCOON:518:1,2011-06-01T17:00:00Z,29.5150,-94.5133,0.0,3.8,128.0,4.2,'11111222,11111222,11111222' 
TCOON,ioos:station:TCOON:518:1,2011-06-01T18:00:00Z,29.5150,-94.5133,0.0,3.2,130.0,4.1,'11111222,11111222,11111222' 
TCOON,ioos:station:TCOON:518:1,2011-06-01T19:00:00Z,29.5150,-94.5133,0.0,4.0,129.0,5.1,'11111222,11111222,11111222' 
TCOON,ioos:station:TCOON:518:1,2011-06-01T20:00:00Z,29.5150,-94.5133,0.0,4.1,135.0,5.1,'11111222,11111222,11111222' 
TCOON,ioos:station:TCOON:518:1,2011-06-01T21:00:00Z,29.5150,-94.5133,0.0,3.5,161.0,4.8,'11111222,11111222,11111222' 
TCOON,ioos:station:TCOON:518:1,2011-06-01T22:00:00Z,29.5150,-94.5133,0.0,3.3,165.0,5.2,'11111222,11111222,11111222' 
TCOON,ioos:station:TCOON:518:1,2011-06-01T23:00:00Z,29.5150,-94.5133,0.0,3.4,175.0,4.7,'11111222,11111222,11111222' 
TCOON,ioos:station:TCOON:518:1,2011-06-02T00:00:00Z,29.5150,-94.5133,0.0,2.3,204.0,4.7,'11111222,11111222,11111222' 
TCOON,ioos:station:TCOON:518:1,2011-06-02T01:00:00Z,29.5150,-94.5133,0.0,2.2,215.0,3.3,'11111222,11111222,11111222' 
TCOON,ioos:station:TCOON:518:1,2011-06-02T02:00:00Z,29.5150,-94.5133,0.0,2.0,215.0,3.2,'11111222,11111222,11111222' 
TCOON,ioos:station:TCOON:518:1,2011-06-02T03:00:00Z,29.5150,-94.5133,0.0,2.6,227.0,3.8,'11111222,11111222,11111222' 
TCOON,ioos:station:TCOON:518:1,2011-06-02T04:00:00Z,29.5150,-94.5133,0.0,2.3,236.0,3.2,'11111222,11111222,11111222' 
TCOON,ioos:station:TCOON:518:1,2011-06-02T05:00:00Z,29.5150,-94.5133,0.0,2.0,262.0,2.7,'11111222,11111222,11111222' 
TCOON,ioos:station:TCOON:518:1,2011-06-02T06:00:00Z,29.5150,-94.5133,0.0,1.7,250.0,2.3,'11111222,11111222,11111222' 
TCOON,ioos:station:TCOON:518:1,2011-06-02T07:00:00Z,29.5150,-94.5133,0.0,1.6,267.0,2.4,'11111222,11111222,11111222' 
TCOON,ioos:station:TCOON:518:1,2011-06-02T08:00:00Z,29.5150,-94.5133,0.0,2.5,290.0,3.3,'11111222,11111222,11111222' 
TCOON,ioos:station:TCOON:518:1,2011-06-02T09:00:00Z,29.5150,-94.5133,0.0,3.8,301.0,4.7,'11111222,11111222,11111222' 
TCOON,ioos:station:TCOON:518:1,2011-06-02T10:00:00Z,29.5150,-94.5133,0.0,3.6,317.0,4.5,'11111222,11111222,11111222' 
TCOON,ioos:station:TCOON:518:1,2011-06-02T11:00:00Z,29.5150,-94.5133,0.0,4.5,309.0,5.2,'11111222,11111222,11111222' 
TCOON,ioos:station:TCOON:518:1,2011-06-02T12:00:00Z,29.5150,-94.5133,0.0,3.9,339.0,4.9,'11111222,11111222,11111222' 
TCOON,ioos:station:TCOON:518:1,2011-06-02T13:00:00Z,29.5150,-94.5133,0.0,2.7,337.0,3.6,'11111222,11111222,11111222' 
TCOON,ioos:station:TCOON:518:1,2011-06-02T14:00:00Z,29.5150,-94.5133,0.0,3.3,320.0,3.9,'11111222,11111222,11111222' 
TCOON,ioos:station:TCOON:518:1,2011-06-02T15:00:00Z,29.5150,-94.5133,0.0,2.9,314.0,3.8,'11111222,11111222,11111222' 
TCOON,ioos:station:TCOON:518:1,2011-06-02T16:00:00Z,29.5150,-94.5133,0.0,3.9,292.0,5.5,'11111222,11111222,11111222' 
TCOON,ioos:station:TCOON:518:1,2011-06-02T17:00:00Z,29.5150,-94.5133,0.0,3.0,289.0,3.5,'11111222,11111222,11111222' 
TCOON,ioos:station:TCOON:518:1,2011-06-02T18:00:00Z,29.5150,-94.5133,0.0,3.8,291.0,4.5,'11111222,11111222,11111222' 
TCOON,ioos:station:TCOON:518:1,2011-06-02T19:00:00Z,29.5150,-94.5133,0.0,3.8,206.0,4.9,'11111222,11111222,11111222' 
TCOON,ioos:station:TCOON:518:1,2011-06-02T20:00:00Z,29.5150,-94.5133,0.0,3.2,198.0,4.5,'11111222,11111222,11111222' 
TCOON,ioos:station:TCOON:518:1,2011-06-02T21:00:00Z,29.5150,-94.5133,0.0,2.9,194.0,4.8,'11111222,11111222,11111222' 
TCOON,ioos:station:TCOON:518:1,2011-06-02T22:00:00Z,29.5150,-94.5133,0.0,2.4,213.0,3.3,'11111222,11111222,11111222' 
TCOON,ioos:station:TCOON:518:1,2011-06-02T23:00:00Z,29.5150,-94.5133,0.0,2.7,216.0,4.2,'11111222,11111222,11111222' 
TCOON,ioos:station:TCOON:518:1,2011-06-03T00:00:00Z,29.5150,-94.5133,0.0,1.7,264.0,2.1,'11111222,11111222,11111222' 
TCOON,ioos:station:TCOON:518:1,2011-06-03T01:00:00Z,29.5150,-94.5133,0.0,1.9,237.0,2.6,'11111222,11111222,11111222' 
TCOON,ioos:station:TCOON:518:1,2011-06-03T02:00:00Z,29.5150,-94.5133,0.0,1.5,197.0,1.9,'11111222,11111222,11111222' 
TCOON,ioos:station:TCOON:518:1,2011-06-03T03:00:00Z,29.5150,-94.5133,0.0,2.6,142.0,3.2,'11111222,11111222,11111222' 
TCOON,ioos:station:TCOON:518:1,2011-06-03T04:00:00Z,29.5150,-94.5133,0.0,6.7,136.0,9.3,'11111222,11111222,11111222' 
TCOON,ioos:station:TCOON:518:1,2011-06-03T05:00:00Z,29.5150,-94.5133,0.0,8.9,129.0,10.1,'11111222,11111222,11111222' 
TCOON,ioos:station:TCOON:518:1,2011-06-03T06:00:00Z,29.5150,-94.5133,0.0,7.6,130.0,9.0,'11111222,11111222,11111222' 
TCOON,ioos:station:TCOON:518:1,2011-06-03T07:00:00Z,29.5150,-94.5133,0.0,6.6,143.0,8.1,'11111222,11111222,11111222' 
TCOON,ioos:station:TCOON:518:1,2011-06-03T08:00:00Z,29.5150,-94.5133,0.0,4.9,153.0,6.8,'11111222,11111222,11111222' 
TCOON,ioos:station:TCOON:518:1,2011-06-03T09:00:00Z,29.5150,-94.5133,0.0,4.8,146.0,6.3,'11111222,11111222,11111222' 
TCOON,ioos:station:TCOON:518:1,2011-06-03T10:00:00Z,29.5150,-94.5133,0.0,4.8,152.0,6.2,'11111222,11111222,11111222' 
TCOON,ioos:station:TCOON:518:1,2011-06-03T11:00:00Z,29.5150,-94.5133,0.0,4.6,148.0,5.7,'11111222,11111222,11111222' 
TCOON,ioos:station:TCOON:518:1,2011-06-03T12:00:00Z,29.5150,-94.5133,0.0,4.5,133.0,5.5,'11111222,11111222,11111222' 
TCOON,ioos:station:TCOON:518:1,2011-06-03T13:00:00Z,29.5150,-94.5133,0.0,4.8,134.0,5.8,'11111222,11111222,11111222' 
TCOON,ioos:station:TCOON:518:1,2011-06-03T14:00:00Z,29.5150,-94.5133,0.0,4.6,122.0,5.8,'11111222,11111222,11111222' 
TCOON,ioos:station:TCOON:518:1,2011-06-03T15:00:00Z,29.5150,-94.5133,0.0,4.6,128.0,6.1,'11111222,11111222,11111222' 
TCOON,ioos:station:TCOON:518:1,2011-06-03T16:00:00Z,29.5150,-94.5133,0.0,5.0,117.0,5.9,'11111222,11111222,11111222' 
TCOON,ioos:station:TCOON:518:1,2011-06-03T17:00:00Z,29.5150,-94.5133,0.0,5.0,112.0,5.9,'11111222,11111222,11111222' 
TCOON,ioos:station:TCOON:518:1,2011-06-03T18:00:00Z,29.5150,-94.5133,0.0,5.5,120.0,6.5,'11111222,11111222,11111222' 
TCOON,ioos:station:TCOON:518:1,2011-06-03T19:00:00Z,29.5150,-94.5133,0.0,5.4,144.0,7.6,'11111222,11111222,11111222' 
TCOON,ioos:station:TCOON:518:1,2011-06-03T20:00:00Z,29.5150,-94.5133,0.0,6.2,130.0,,'1111122,1111122,1111122' 
TCOON,ioos:station:TCOON:518:1,2011-06-03T21:00:00Z,29.5150,-94.5133,0.0,5.7,150.0,,'1111122,1111122,1111122' 
TCOON,ioos:station:TCOON:518:1,2011-06-03T22:00:00Z,29.5150,-94.5133,0.0,5.1,140.0,,'1111122,1111122,1111122' 
TCOON,ioos:station:TCOON:518:1,2011-06-03T23:00:00Z,29.5150,-94.5133,0.0,5.7,120.0,,'1111122,1111122,1111122' 
TCOON,ioos:station:TCOON:518:1,2011-06-04T00:00:00Z,29.5150,-94.5133,0.0,4.6,140.0,,'1111122,1111122,1111122' 
TCOON,ioos:station:TCOON:518:1,2011-06-04T01:00:00Z,29.5150,-94.5133,0.0,4.6,150.0,,'1111122,1111122,1111122' 
TCOON,ioos:station:TCOON:518:1,2011-06-04T02:00:00Z,29.5150,-94.5133,0.0,4.6,150.0,,'1111122,1111122,1111122' 
TCOON,ioos:station:TCOON:518:1,2011-06-04T03:00:00Z,29.5150,-94.5133,0.0,4.6,140.0,,'1111122,1111122,1111122' 
TCOON,ioos:station:TCOON:518:1,2011-06-04T04:00:00Z,29.5150,-94.5133,0.0,4.6,150.0,,'1111122,1111122,1111122' 
TCOON,ioos:station:TCOON:518:1,2011-06-04T05:00:00Z,29.5150,-94.5133,0.0,5.1,140.0,,'1111122,1111122,1111122' 
TCOON,ioos:station:TCOON:518:1,2011-06-04T06:00:00Z,29.5150,-94.5133,0.0,4.1,150.0,,'1111122,1111122,1111122' 
TCOON,ioos:station:TCOON:518:1,2011-06-04T07:00:00Z,29.5150,-94.5133,0.0,4.1,150.0,,'1111122,1111122,1111122' 
TCOON,ioos:station:TCOON:518:1,2011-06-04T08:00:00Z,29.5150,-94.5133,0.0,5.1,150.0,,'1111122,1111122,1111122' 
TCOON,ioos:station:TCOON:518:1,2011-06-04T09:00:00Z,29.5150,-94.5133,0.0,4.6,160.0,,'1111122,1111122,1111122' 
TCOON,ioos:station:TCOON:518:1,2011-06-04T10:00:00Z,29.5150,-94.5133,0.0,1.5,160.0,,'1111122,1111122,1111122' 
TCOON,ioos:station:TCOON:518:1,2011-06-04T11:00:00Z,29.5150,-94.5133,0.0,4.6,20.0,,'1111122,1111122,1111122' 
TCOON,ioos:station:TCOON:518:1,2011-06-04T12:00:00Z,29.5150,-94.5133,0.0,4.6,30.0,,'1111122,1111122,1111122' 
TCOON,ioos:station:TCOON:518:1,2011-06-04T13:00:00Z,29.5150,-94.5133,0.0,3.1,40.0,,'1111122,1111122,1111122' 
TCOON,ioos:station:TCOON:518:1,2011-06-04T14:00:00Z,29.5150,-94.5133,0.0,3.6,40.0,,'1111122,1111122,1111122' 
TCOON,ioos:station:TCOON:518:1,2011-06-04T15:00:00Z,29.5150,-94.5133,0.0,3.1,100.0,,'1111122,1111122,1111122' 
TCOON,ioos:station:TCOON:518:1,2011-06-04T16:00:00Z,29.5150,-94.5133,0.0,4.6,110.0,,'1111122,1111122,1111122' 
TCOON,ioos:station:TCOON:518:1,2011-06-04T17:00:00Z,29.5150,-94.5133,0.0,4.1,110.0,,'1111122,1111122,1111122' 
TCOON,ioos:station:TCOON:518:1,2011-06-04T18:00:00Z,29.5150,-94.5133,0.0,5.7,130.0,,'1111122,1111122,1111122' 
TCOON,ioos:station:TCOON:518:1,2011-06-04T19:00:00Z,29.5150,-94.5133,0.0,6.7,120.0,,'1111122,1111122,1111122' 
TCOON,ioos:station:TCOON:518:1,2011-06-04T20:00:00Z,29.5150,-94.5133,0.0,5.7,120.0,,'1111122,1111122,1111122' 
TCOON,ioos:station:TCOON:518:1,2011-06-04T21:00:00Z,29.5150,-94.5133,0.0,5.7,130.0,,'1111122,1111122,1111122' 
TCOON,ioos:station:TCOON:518:1,2011-06-04T22:00:00Z,29.5150,-94.5133,0.0,4.1,160.0,,'1111122,1111122,1111122' 
TCOON,ioos:station:TCOON:518:1,2011-06-04T23:00:00Z,29.5150,-94.5133,0.0,3.6,170.0,,'1111122,1111122,1111122' 
TCOON,ioos:station:TCOON:518:1,2011-06-05T00:00:00Z,29.5150,-94.5133,0.0,2.6,200.0,,'1111122,1111122,1111122' 
TCOON,ioos:station:TCOON:518:1,2011-06-05T01:00:00Z,29.5150,-94.5133,0.0,2.1,200.0,,'1111122,1111122,1111122' 
TCOON,ioos:station:TCOON:518:1,2011-06-05T02:00:00Z,29.5150,-94.5133,0.0,1.5,210.0,,'1111122,1111122,1111122' 
TCOON,ioos:station:TCOON:518:1,2011-06-05T03:00:00Z,29.5150,-94.5133,0.0,2.6,220.0,,'1111122,1111122,1111122' 
TCOON,ioos:station:TCOON:518:1,2011-06-05T04:00:00Z,29.5150,-94.5133,0.0,2.6,220.0,,'1111122,1111122,1111122' 
TCOON,ioos:station:TCOON:518:1,2011-06-05T05:00:00Z,29.5150,-94.5133,0.0,2.1,240.0,,'1111122,1111122,1111122' 
TCOON,ioos:station:TCOON:518:1,2011-06-05T06:00:00Z,29.5150,-94.5133,0.0,2.6,270.0,,'1111122,1111122,1111122' 
TCOON,ioos:station:TCOON:518:1,2011-06-05T07:00:00Z,29.5150,-94.5133,0.0,2.1,340.0,,'1111122,1111122,1111122' 
TCOON,ioos:station:TCOON:518:1,2011-06-05T08:00:00Z,29.5150,-94.5133,0.0,3.1,280.0,,'1111122,1111122,1111122' 
TCOON,ioos:station:TCOON:518:1,2011-06-05T09:00:00Z,29.5150,-94.5133,0.0,4.1,10.0,,'1111122,1111122,1111122' 
TCOON,ioos:station:TCOON:518:1,2011-06-05T10:00:00Z,29.5150,-94.5133,0.0,2.1,340.0,,'1111122,1111122,1111122' 
TCOON,ioos:station:TCOON:518:1,2011-06-05T11:00:00Z,29.5150,-94.5133,0.0,2.1,280.0,,'1111122,1111122,1111122' 
TCOON,ioos:station:TCOON:518:1,2011-06-05T12:00:00Z,29.5150,-94.5133,0.0,4.6,350.0,,'1111122,1111122,1111122' 
TCOON,ioos:station:TCOON:518:1,2011-06-05T13:00:00Z,29.5150,-94.5133,0.0,4.6,330.0,,'1111122,1111122,1111122' 
TCOON,ioos:station:TCOON:518:1,2011-06-05T14:00:00Z,29.5150,-94.5133,0.0,4.6,340.0,,'1111122,1111122,1111122' 
TCOON,ioos:station:TCOON:518:1,2011-06-05T15:00:00Z,29.5150,-94.5133,0.0,3.1,330.0,,'1111122,1111122,1111122' 
TCOON,ioos:station:TCOON:518:1,2011-06-05T16:00:00Z,29.5150,-94.5133,0.0,3.1,320.0,,'1111122,1111122,1111122' 
TCOON,ioos:station:TCOON:518:1,2011-06-05T17:00:00Z,29.5150,-94.5133,0.0,2.6,30.0,,'1111122,1111122,1111122' 
TCOON,ioos:station:TCOON:518:1,2011-06-05T18:00:00Z,29.5150,-94.5133,0.0,4.1,40.0,,'1111122,1111122,1111122' 
TCOON,ioos:station:TCOON:518:1,2011-06-05T19:00:00Z,29.5150,-94.5133,0.0,3.1,170.0,,'1111122,1111122,1111122' 
TCOON,ioos:station:TCOON:518:1,2011-06-05T20:00:00Z,29.5150,-94.5133,0.0,2.6,180.0,,'1111122,1111122,1111122' 
TCOON,ioos:station:TCOON:518:1,2011-06-05T21:00:00Z,29.5150,-94.5133,0.0,4.1,170.0,,'1111122,1111122,1111122' 
TCOON,ioos:station:TCOON:518:1,2011-06-05T22:00:00Z,29.5150,-94.5133,0.0,4.1,170.0,,'1111122,1111122,1111122' 
TCOON,ioos:station:TCOON:518:1,2011-06-05T23:00:00Z,29.5150,-94.5133,0.0,3.1,180.0,,'1111122,1111122,1111122' 
TCOON,ioos:station:TCOON:518:1,2011-06-06T00:00:00Z,29.5150,-94.5133,0.0,3.6,200.0,,'1111122,1111122,1111122' 
TCOON,ioos:station:TCOON:518:1,2011-06-06T01:00:00Z,29.5150,-94.5133,0.0,2.6,220.0,,'1111122,1111122,1111122' 
TCOON,ioos:station:TCOON:518:1,2011-06-06T02:00:00Z,29.5150,-94.5133,0.0,2.6,240.0,,'1111122,1111122,1111122' 
TCOON,ioos:station:TCOON:518:1,2011-06-06T03:00:00Z,29.5150,-94.5133,0.0,1.5,260.0,,'1111122,1111122,1111122' 
TCOON,ioos:station:TCOON:518:1,2011-06-06T04:00:00Z,29.5150,-94.5133,0.0,1.5,240.0,,'1111122,1111122,1111122' 
TCOON,ioos:station:TCOON:518:1,2011-06-06T05:00:00Z,29.5150,-94.5133,0.0,1.5,260.0,,'1111122,1111122,1111122' 
TCOON,ioos:station:TCOON:518:1,2011-06-06T06:00:00Z,29.5150,-94.5133,0.0,1.5,240.0,,'1111122,1111122,1111122' 
TCOON,ioos:station:TCOON:518:1,2011-06-06T07:00:00Z,29.5150,-94.5133,0.0,1.5,230.0,,'1111122,1111122,1111122' 
TCOON,ioos:station:TCOON:518:1,2011-06-06T08:00:00Z,29.5150,-94.5133,0.0,2.1,280.0,,'1111122,1111122,1111122' 
TCOON,ioos:station:TCOON:518:1,2011-06-06T09:00:00Z,29.5150,-94.5133,0.0,1.5,40.0,,'1111122,1111122,1111122' 
TCOON,ioos:station:TCOON:518:1,2011-06-06T10:00:00Z,29.5150,-94.5133,0.0,1.5,100.0,,'1111122,1111122,1111122' 
TCOON,ioos:station:TCOON:518:1,2011-06-06T11:00:00Z,29.5150,-94.5133,0.0,2.6,120.0,,'1111122,1111122,1111122' 
TCOON,ioos:station:TCOON:518:1,2011-06-06T12:00:00Z,29.5150,-94.5133,0.0,2.6,340.0,,'1111122,1111122,1111122' 
TCOON,ioos:station:TCOON:518:1,2011-06-06T13:00:00Z,29.5150,-94.5133,0.0,4.1,340.0,,'1111122,1111122,1111122' 
TCOON,ioos:station:TCOON:518:1,2011-06-06T14:00:00Z,29.5150,-94.5133,0.0,3.6,340.0,,'1111122,1111122,1111122' 
TCOON,ioos:station:TCOON:518:1,2011-06-06T15:00:00Z,29.5150,-94.5133,0.0,3.1,310.0,,'1111122,1111122,1111122' 
TCOON,ioos:station:TCOON:518:1,2011-06-06T16:00:00Z,29.5150,-94.5133,0.0,2.6,300.0,,'1111122,1111122,1111122' 
TCOON,ioos:station:TCOON:518:1,2011-06-06T17:00:00Z,29.5150,-94.5133,0.0,0.5,360.0,,'1111122,1111122,1111122' 
TCOON,ioos:station:TCOON:518:1,2011-06-06T18:00:00Z,29.5150,-94.5133,0.0,3.1,170.0,,'1111122,1111122,1111122' 
TCOON,ioos:station:TCOON:518:1,2011-06-06T19:00:00Z,29.5150,-94.5133,0.0,3.1,170.0,,'1111122,1111122,1111122' 
TCOON,ioos:station:TCOON:518:1,2011-06-06T20:00:00Z,29.5150,-94.5133,0.0,5.7,150.0,,'1111122,1111122,1111122' 
TCOON,ioos:station:TCOON:518:1,2011-06-06T21:00:00Z,29.5150,-94.5133,0.0,5.1,170.0,,'1111122,1111122,1111122' 
TCOON,ioos:station:TCOON:518:1,2011-06-06T22:00:00Z,29.5150,-94.5133,0.0,15.9,20.0,,'1111122,1111122,1111122' 
TCOON,ioos:station:TCOON:518:1,2011-06-06T23:00:00Z,29.5150,-94.5133,0.0,10.3,40.0,,'1111122,1111122,1111122' 
TCOON,ioos:station:TCOON:518:1,2011-06-07T00:00:00Z,29.5150,-94.5133,0.0,5.7,40.0,,'1111122,1111122,1111122' 
TCOON,ioos:station:TCOON:518:1,2011-06-07T01:00:00Z,29.5150,-94.5133,0.0,9.3,90.0,,'1111122,1111122,1111122' 
TCOON,ioos:station:TCOON:518:1,2011-06-07T02:00:00Z,29.5150,-94.5133,0.0,8.7,100.0,,'1111122,1111122,1111122' 
TCOON,ioos:station:TCOON:518:1,2011-06-07T03:00:00Z,29.5150,-94.5133,0.0,10.3,120.0,,'1111122,1111122,1111122' 
TCOON,ioos:station:TCOON:518:1,2011-06-07T04:00:00Z,29.5150,-94.5133,0.0,6.2,110.0,,'1111122,1111122,1111122' 
TCOON,ioos:station:TCOON:518:1,2011-06-07T05:00:00Z,29.5150,-94.5133,0.0,4.1,140.0,,'1111122,1111122,1111122' 
TCOON,ioos:station:TCOON:518:1,2011-06-07T06:00:00Z,29.5150,-94.5133,0.0,5.1,130.0,,'1111122,1111122,1111122' 
TCOON,ioos:station:TCOON:518:1,2011-06-07T07:00:00Z,29.5150,-94.5133,0.0,3.6,130.0,,'1111122,1111122,1111122' 
TCOON,ioos:station:TCOON:518:1,2011-06-07T08:00:00Z,29.5150,-94.5133,0.0,3.9,46.0,6.0,'11111222,11111222,11111222' 
TCOON,ioos:station:TCOON:518:1,2011-06-07T09:00:00Z,29.5150,-94.5133,0.0,2.1,90.0,2.8,'11111222,11111222,11111222' 
TCOON,ioos:station:TCOON:518:1,2011-06-07T10:00:00Z,29.5150,-94.5133,0.0,2.6,150.0,,'1111122,1111122,1111122' 
TCOON,ioos:station:TCOON:518:1,2011-06-07T11:00:00Z,29.5150,-94.5133,0.0,2.6,10.0,,'1111122,1111122,1111122' 
TCOON,ioos:station:TCOON:518:1,2011-06-07T12:00:00Z,29.5150,-94.5133,0.0,2.1,20.0,,'1111122,1111122,1111122' 
TCOON,ioos:station:TCOON:518:1,2011-06-07T13:00:00Z,29.5150,-94.5133,0.0,2.6,30.0,,'1111122,1111122,1111122' 
TCOON,ioos:station:TCOON:518:1,2011-06-07T14:00:00Z,29.5150,-94.5133,0.0,1.0,50.0,,'1111122,1111122,1111122' 
TCOON,ioos:station:TCOON:518:1,2011-06-07T15:00:00Z,29.5150,-94.5133,0.0,3.1,150.0,,'1111122,1111122,1111122' 
TCOON,ioos:station:TCOON:518:1,2011-06-07T16:00:00Z,29.5150,-94.5133,0.0,3.1,170.0,,'1111122,1111122,1111122' 
TCOON,ioos:station:TCOON:518:1,2011-06-07T17:00:00Z,29.5150,-94.5133,0.0,2.1,220.0,,'1111122,1111122,1111122' 
TCOON,ioos:station:TCOON:518:1,2011-06-07T18:00:00Z,29.5150,-94.5133,0.0,1.5,20.0,,'1111122,1111122,1111122' 
TCOON,ioos:station:TCOON:518:1,2011-06-07T19:00:00Z,29.5150,-94.5133,0.0,4.6,150.0,,'1111122,1111122,1111122' 
TCOON,ioos:station:TCOON:518:1,2011-06-07T20:00:00Z,29.5150,-94.5133,0.0,4.6,150.0,,'1111122,1111122,1111122' 
TCOON,ioos:station:TCOON:518:1,2011-06-07T21:00:00Z,29.5150,-94.5133,0.0,6.2,130.0,,'1111122,1111122,1111122' 
TCOON,ioos:station:TCOON:518:1,2011-06-07T22:00:00Z,29.5150,-94.5133,0.0,6.7,150.0,,'1111122,1111122,1111122' 
TCOON,ioos:station:TCOON:518:1,2011-06-07T23:00:00Z,29.5150,-94.5133,0.0,5.7,160.0,,'1111122,1111122,1111122' 
TCOON,ioos:station:TCOON:518:1,2011-06-08T00:00:00Z,29.5150,-94.5133,0.0,5.1,160.0,,'1111122,1111122,1111122' 
TCOON,ioos:station:TCOON:518:1,2011-06-08T01:00:00Z,29.5150,-94.5133,0.0,6.2,160.0,,'1111122,1111122,1111122' 
TCOON,ioos:station:TCOON:518:1,2011-06-08T02:00:00Z,29.5150,-94.5133,0.0,5.1,160.0,,'1111122,1111122,1111122' 
TCOON,ioos:station:TCOON:518:1,2011-06-08T03:00:00Z,29.5150,-94.5133,0.0,3.1,170.0,,'1111122,1111122,1111122' 
TCOON,ioos:station:TCOON:518:1,2011-06-08T04:00:00Z,29.5150,-94.5133,0.0,3.1,180.0,,'1111122,1111122,1111122' 
TCOON,ioos:station:TCOON:518:1,2011-06-08T05:00:00Z,29.5150,-94.5133,0.0,3.6,170.0,,'1111122,1111122,1111122' 
TCOON,ioos:station:TCOON:518:1,2011-06-08T06:00:00Z,29.5150,-94.5133,0.0,4.6,170.0,,'1111122,1111122,1111122' 
TCOON,ioos:station:TCOON:518:1,2011-06-08T07:00:00Z,29.5150,-94.5133,0.0,4.1,180.0,,'1111122,1111122,1111122' 
TCOON,ioos:station:TCOON:518:1,2011-06-08T08:00:00Z,29.5150,-94.5133,0.0,4.6,180.0,,'1111122,1111122,1111122' 
TCOON,ioos:station:TCOON:518:1,2011-06-08T09:00:00Z,29.5150,-94.5133,0.0,5.1,170.0,,'1111122,1111122,1111122' 
TCOON,ioos:station:TCOON:518:1,2011-06-08T10:00:00Z,29.5150,-94.5133,0.0,4.1,170.0,,'1111122,1111122,1111122' 
TCOON,ioos:station:TCOON:518:1,2011-06-08T11:00:00Z,29.5150,-94.5133,0.0,4.1,170.0,,'1111122,1111122,1111122' 
TCOON,ioos:station:TCOON:518:1,2011-06-08T12:00:00Z,29.5150,-94.5133,0.0,4.1,180.0,,'1111122,1111122,1111122' 
TCOON,ioos:station:TCOON:518:1,2011-06-08T13:00:00Z,29.5150,-94.5133,0.0,5.1,160.0,,'1111122,1111122,1111122' 
TCOON,ioos:station:TCOON:518:1,2011-06-08T14:00:00Z,29.5150,-94.5133,0.0,5.1,170.0,,'1111122,1111122,1111122' 
TCOON,ioos:station:TCOON:518:1,2011-06-08T15:00:00Z,29.5150,-94.5133,0.0,4.1,180.0,,'1111122,1111122,1111122' 
TCOON,ioos:station:TCOON:518:1,2011-06-08T16:00:00Z,29.5150,-94.5133,0.0,5.1,170.0,,'1111122,1111122,1111122' 
TCOON,ioos:station:TCOON:518:1,2011-06-08T17:00:00Z,29.5150,-94.5133,0.0,3.6,170.0,,'1111122,1111122,1111122' 
TCOON,ioos:station:TCOON:518:1,2011-06-08T18:00:00Z,29.5150,-94.5133,0.0,4.1,180.0,,'1111122,1111122,1111122' 
TCOON,ioos:station:TCOON:518:1,2011-06-08T19:00:00Z,29.5150,-94.5133,0.0,4.6,170.0,,'1111122,1111122,1111122' 
TCOON,ioos:station:TCOON:518:1,2011-06-08T20:00:00Z,29.5150,-94.5133,0.0,4.6,160.0,,'1111122,1111122,1111122' 
TCOON,ioos:station:TCOON:518:1,2011-06-08T21:00:00Z,29.5150,-94.5133,0.0,6.2,150.0,,'1111122,1111122,1111122' 
TCOON,ioos:station:TCOON:518:1,2011-06-08T22:00:00Z,29.5150,-94.5133,0.0,5.1,160.0,,'1111122,1111122,1111122' 
TCOON,ioos:station:TCOON:518:1,2011-06-08T23:00:00Z,29.5150,-94.5133,0.0,4.6,170.0,,'1111122,1111122,1111122' 
TCOON,ioos:station:TCOON:518:1,2011-06-09T00:00:00Z,29.5150,-94.5133,0.0,5.1,150.0,,'1111122,1111122,1111122' 
TCOON,ioos:station:TCOON:518:1,2011-06-09T01:00:00Z,29.5150,-94.5133,0.0,4.1,150.0,,'1111122,1111122,1111122' 
TCOON,ioos:station:TCOON:518:1,2011-06-09T02:00:00Z,29.5150,-94.5133,0.0,6.2,140.0,,'1111122,1111122,1111122' 
TCOON,ioos:station:TCOON:518:1,2011-06-09T03:00:00Z,29.5150,-94.5133,0.0,4.6,150.0,,'1111122,1111122,1111122' 
TCOON,ioos:station:TCOON:518:1,2011-06-09T04:00:00Z,29.5150,-94.5133,0.0,4.6,150.0,,'1111122,1111122,1111122' 
TCOON,ioos:station:TCOON:518:1,2011-06-09T05:00:00Z,29.5150,-94.5133,0.0,5.7,150.0,,'1111122,1111122,1111122' 
TCOON,ioos:station:TCOON:518:1,2011-06-09T06:00:00Z,29.5150,-94.5133,0.0,5.1,150.0,,'1111122,1111122,1111122' 
TCOON,ioos:station:TCOON:518:1,2011-06-09T07:00:00Z,29.5150,-94.5133,0.0,5.7,150.0,,'1111122,1111122,1111122' 
TCOON,ioos:station:TCOON:518:1,2011-06-09T08:00:00Z,29.5150,-94.5133,0.0,5.7,160.0,,'1111122,1111122,1111122' 
TCOON,ioos:station:TCOON:518:1,2011-06-09T09:00:00Z,29.5150,-94.5133,0.0,2.6,180.0,,'1111122,1111122,1111122' 
TCOON,ioos:station:TCOON:518:1,2011-06-09T10:00:00Z,29.5150,-94.5133,0.0,2.6,170.0,,'1111122,1111122,1111122' 
TCOON,ioos:station:TCOON:518:1,2011-06-09T11:00:00Z,29.5150,-94.5133,0.0,3.6,160.0,,'1111122,1111122,1111122' 
TCOON,ioos:station:TCOON:518:1,2011-06-09T12:00:00Z,29.5150,-94.5133,0.0,3.1,150.0,,'1111122,1111122,1111122' 
TCOON,ioos:station:TCOON:518:1,2011-06-09T13:00:00Z,29.5150,-94.5133,0.0,4.1,150.0,,'1111122,1111122,1111122' 
TCOON,ioos:station:TCOON:518:1,2011-06-09T14:00:00Z,29.5150,-94.5133,0.0,4.6,150.0,,'1111122,1111122,1111122' 
TCOON,ioos:station:TCOON:518:1,2011-06-09T15:00:00Z,29.5150,-94.5133,0.0,4.6,140.0,,'1111122,1111122,1111122' 
TCOON,ioos:station:TCOON:518:1,2011-06-09T16:00:00Z,29.5150,-94.5133,0.0,4.6,160.0,,'1111122,1111122,1111122' 
TCOON,ioos:station:TCOON:518:1,2011-06-09T17:00:00Z,29.5150,-94.5133,0.0,5.7,140.0,,'1111122,1111122,1111122' 
TCOON,ioos:station:TCOON:518:1,2011-06-09T18:00:00Z,29.5150,-94.5133,0.0,5.1,160.0,,'1111122,1111122,1111122' 
TCOON,ioos:station:TCOON:518:1,2011-06-09T19:00:00Z,29.5150,-94.5133,0.0,4.6,170.0,,'1111122,1111122,1111122' 